Time,TemperatureF,DewpointF,PressureIn,WindDirection,WindDirectionDegrees,WindSpeedMPH,WindSpeedGustMPH,Humidity,HourlyPrecipIn,Conditions,Clouds,dailyrainin,SoftwareType,DateUTC
2013-01-17 00:02:00,43.0,36.0,30.26,SW,234,1.0,1.0,76,0.00,,,0.00,,2013-01-17 08:02:00,
2013-01-17 00:11:00,43.0,36.0,30.26,SW,234,1.0,1.0,76,0.00,,,0.00,,2013-01-17 08:11:00,
2013-01-17 00:22:00,43.0,36.0,30.26,SW,234,0.0,2.0,75,0.00,,,0.00,,2013-01-17 08:22:00,
2013-01-17 00:32:00,43.0,36.0,30.26,WSW,240,0.0,2.0,76,0.00,,,0.00,,2013-01-17 08:32:00,
2013-01-17 00:43:00,43.0,36.0,30.26,WSW,240,0.0,2.0,76,0.00,,,0.00,,2013-01-17 08:43:00,
2013-01-17 00:52:00,42.0,35.0,30.26,WSW,240,0.0,1.0,75,0.00,,,0.00,,2013-01-17 08:52:00,
2013-01-17 01:02:00,42.0,34.0,30.26,WSW,240,1.0,2.0,73,0.00,,,0.00,,2013-01-17 09:02:00,
2013-01-17 01:12:00,42.0,34.0,30.26,WSW,240,1.0,2.0,73,0.00,,,0.00,,2013-01-17 09:12:00,
2013-01-17 01:22:00,43.0,35.0,30.26,WSW,240,0.0,0.0,72,0.00,,,0.00,,2013-01-17 09:22:00,
2013-01-17 01:32:00,43.0,35.0,30.26,WSW,240,0.0,2.0,74,0.00,,,0.00,,2013-01-17 09:32:00,
2013-01-17 01:42:00,43.0,35.0,30.26,WSW,240,0.0,2.0,74,0.00,,,0.00,,2013-01-17 09:42:00,
2013-01-17 01:52:00,42.0,35.0,30.26,WSW,240,0.0,2.0,76,0.00,,,0.00,,2013-01-17 09:52:00,
2013-01-17 02:02:00,42.0,35.0,30.26,WSW,240,1.0,1.0,76,0.00,,,0.00,,2013-01-17 10:02:00,
2013-01-17 02:11:00,42.0,35.0,30.26,WSW,240,1.0,1.0,76,0.00,,,0.00,,2013-01-17 10:11:00,
2013-01-17 02:22:00,42.0,35.0,30.26,WSW,240,0.0,1.0,77,0.00,,,0.00,,2013-01-17 10:22:00,
2013-01-17 02:32:00,42.0,36.0,30.26,WSW,240,1.0,1.0,78,0.00,,,0.00,,2013-01-17 10:32:00,
2013-01-17 02:42:00,42.0,36.0,30.26,WSW,240,1.0,1.0,78,0.00,,,0.00,,2013-01-17 10:42:00,
2013-01-17 02:52:00,41.0,35.0,30.26,WSW,240,0.0,1.0,78,0.00,,,0.00,,2013-01-17 10:52:00,
2013-01-17 03:02:00,41.0,35.0,30.26,WSW,240,0.0,1.0,79,0.00,,,0.00,,2013-01-17 11:02:00,
2013-01-17 03:11:00,41.0,35.0,30.26,WSW,240,0.0,1.0,79,0.00,,,0.00,,2013-01-17 11:11:00,
2013-01-17 03:22:00,41.0,34.0,30.25,WSW,240,1.0,2.0,77,0.00,,,0.00,,2013-01-17 11:22:00,
2013-01-17 03:32:00,41.0,34.0,30.25,WSW,240,0.0,2.0,76,0.00,,,0.00,,2013-01-17 11:32:00,
2013-01-17 03:42:00,41.0,34.0,30.25,WSW,240,0.0,2.0,76,0.00,,,0.00,,2013-01-17 11:42:00,
2013-01-17 03:53:00,41.0,34.0,30.25,WSW,240,0.0,1.0,75,0.00,,,0.00,,2013-01-17 11:53:00,
2013-01-17 04:02:00,41.0,33.0,30.24,WSW,240,0.0,1.0,74,0.00,,,0.00,,2013-01-17 12:02:00,
2013-01-17 04:12:00,41.0,33.0,30.24,WSW,240,0.0,1.0,74,0.00,,,0.00,,2013-01-17 12:12:00,
2013-01-17 04:22:00,42.0,35.0,30.24,WSW,240,0.0,1.0,75,0.00,,,0.00,,2013-01-17 12:22:00,
2013-01-17 04:32:00,42.0,35.0,30.24,WSW,240,1.0,2.0,76,0.00,,,0.00,,2013-01-17 12:32:00,
2013-01-17 04:42:00,42.0,35.0,30.24,WSW,240,1.0,2.0,76,0.00,,,0.00,,2013-01-17 12:42:00,
2013-01-17 04:53:00,42.0,34.0,30.24,WSW,240,0.0,1.0,74,0.00,,,0.00,,2013-01-17 12:53:00,
2013-01-17 05:02:00,42.0,35.0,30.24,WSW,240,1.0,1.0,75,0.00,,,0.00,,2013-01-17 13:02:00,
2013-01-17 05:12:00,42.0,35.0,30.24,WSW,240,1.0,1.0,75,0.00,,,0.00,,2013-01-17 13:12:00,
2013-01-17 05:22:00,41.0,34.0,30.23,WSW,240,0.0,2.0,75,0.00,,,0.00,,2013-01-17 13:22:00,
2013-01-17 05:33:00,41.0,34.0,30.23,WSW,240,0.0,2.0,76,0.00,,,0.00,,2013-01-17 13:33:00,
2013-01-17 05:42:00,41.0,34.0,30.23,WSW,240,0.0,2.0,76,0.00,,,0.00,,2013-01-17 13:42:00,
2013-01-17 05:53:00,40.0,33.0,30.22,WSW,240,0.0,1.0,77,0.00,,,0.00,,2013-01-17 13:53:00,
2013-01-17 06:02:00,40.0,34.0,30.22,WSW,240,0.0,2.0,78,0.00,,,0.00,,2013-01-17 14:02:00,
2013-01-17 06:12:00,40.0,34.0,30.22,WSW,240,0.0,2.0,78,0.00,,,0.00,,2013-01-17 14:12:00,
2013-01-17 06:23:00,40.0,34.0,30.22,WSW,240,1.0,2.0,79,0.00,,,0.00,,2013-01-17 14:23:00,
2013-01-17 06:32:00,40.0,35.0,30.22,WSW,240,0.0,1.0,81,0.00,,,0.00,,2013-01-17 14:32:00,
2013-01-17 06:42:00,40.0,35.0,30.22,WSW,240,0.0,1.0,81,0.00,,,0.00,,2013-01-17 14:42:00,
2013-01-17 06:53:00,40.0,35.0,30.22,WSW,240,1.0,2.0,81,0.00,,,0.00,,2013-01-17 14:53:00,
2013-01-17 07:02:00,40.0,35.0,30.22,WSW,240,1.0,2.0,81,0.00,,,0.00,,2013-01-17 15:02:00,
2013-01-17 07:12:00,40.0,35.0,30.22,WSW,240,1.0,2.0,81,0.00,,,0.00,,2013-01-17 15:12:00,
2013-01-17 07:22:00,39.0,34.0,30.22,WSW,240,1.0,1.0,81,0.00,,,0.00,,2013-01-17 15:22:00,
2013-01-17 07:33:00,39.0,34.0,30.22,WSW,240,1.0,2.0,81,0.00,,,0.00,,2013-01-17 15:33:00,
2013-01-17 07:43:00,39.0,34.0,30.22,WSW,240,1.0,2.0,81,0.00,,,0.00,,2013-01-17 15:43:00,
2013-01-17 07:53:00,39.0,33.0,30.22,SW,215,0.0,1.0,79,0.00,,,0.00,,2013-01-17 15:53:00,
2013-01-17 08:02:00,39.0,33.0,30.22,SW,215,0.0,1.0,78,0.00,,,0.00,,2013-01-17 16:02:00,
2013-01-17 08:12:00,39.0,33.0,30.22,SW,215,0.0,1.0,78,0.00,,,0.00,,2013-01-17 16:12:00,
2013-01-17 08:22:00,39.0,33.0,30.22,SW,215,0.0,0.0,79,0.00,,,0.00,,2013-01-17 16:22:00,
2013-01-17 08:33:00,40.0,34.0,30.23,SW,215,1.0,1.0,80,0.00,,,0.00,,2013-01-17 16:33:00,
2013-01-17 08:43:00,40.0,34.0,30.23,SW,215,1.0,1.0,80,0.00,,,0.00,,2013-01-17 16:43:00,
2013-01-17 08:53:00,42.0,36.0,30.24,SW,215,0.0,1.0,79,0.00,,,0.00,,2013-01-17 16:53:00,
2013-01-17 09:02:00,44.0,37.0,30.24,South,180,0.0,2.0,76,0.00,,,0.00,,2013-01-17 17:02:00,
2013-01-17 09:12:00,44.0,37.0,30.24,South,180,0.0,2.0,76,0.00,,,0.00,,2013-01-17 17:12:00,
2013-01-17 09:22:00,46.0,37.0,30.25,South,180,0.0,2.0,71,0.00,,,0.00,,2013-01-17 17:22:00,
2013-01-17 09:32:00,48.0,38.0,30.25,South,180,1.0,2.0,68,0.00,,,0.00,,2013-01-17 17:32:00,
2013-01-17 09:53:00,47.0,37.0,30.26,South,173,1.0,3.0,68,0.00,,,0.00,,2013-01-17 17:53:00,
2013-01-17 10:03:00,47.0,37.0,30.26,South,169,2.0,3.0,68,0.00,,,0.00,,2013-01-17 18:03:00,
2013-01-17 10:12:00,47.0,37.0,30.26,South,169,2.0,3.0,68,0.00,,,0.00,,2013-01-17 18:12:00,
2013-01-17 10:22:00,48.0,38.0,30.26,SSE,158,2.0,3.0,68,0.00,,,0.00,,2013-01-17 18:22:00,
2013-01-17 10:33:00,48.0,37.0,30.26,South,179,2.0,3.0,66,0.00,,,0.00,,2013-01-17 18:33:00,
2013-01-17 10:43:00,48.0,37.0,30.26,South,179,2.0,3.0,66,0.00,,,0.00,,2013-01-17 18:43:00,
2013-01-17 10:53:00,49.0,38.0,30.25,SSE,163,2.0,4.0,66,0.00,,,0.00,,2013-01-17 18:53:00,
2013-01-17 11:02:00,50.0,39.0,30.25,South,182,2.0,3.0,66,0.00,,,0.00,,2013-01-17 19:02:00,
2013-01-17 11:12:00,50.0,39.0,30.25,South,182,2.0,3.0,66,0.00,,,0.00,,2013-01-17 19:12:00,
2013-01-17 11:22:00,51.0,40.0,30.24,South,184,2.0,4.0,65,0.00,,,0.00,,2013-01-17 19:22:00,
2013-01-17 11:32:00,52.0,40.0,30.24,SSE,161,2.0,4.0,64,0.00,,,0.00,,2013-01-17 19:32:00,
2013-01-17 11:42:00,52.0,40.0,30.24,SSE,161,2.0,4.0,64,0.00,,,0.00,,2013-01-17 19:42:00,
2013-01-17 11:53:00,53.0,41.0,30.23,South,172,1.0,4.0,63,0.00,,,0.00,,2013-01-17 19:53:00,
2013-01-17 12:02:00,55.0,42.0,30.23,SSE,160,1.0,4.0,61,0.00,,,0.00,,2013-01-17 20:02:00,
2013-01-17 12:12:00,55.0,42.0,30.23,SSE,160,1.0,4.0,61,0.00,,,0.00,,2013-01-17 20:12:00,
2013-01-17 12:22:00,56.0,42.0,30.22,SE,135,2.0,4.0,59,0.00,,,0.00,,2013-01-17 20:22:00,
2013-01-17 12:33:00,57.0,43.0,30.21,South,186,2.0,4.0,60,0.00,,,0.00,,2013-01-17 20:33:00,
2013-01-17 12:43:00,57.0,43.0,30.21,South,186,2.0,4.0,60,0.00,,,0.00,,2013-01-17 20:43:00,
2013-01-17 12:53:00,59.0,44.0,30.20,SSW,194,3.0,4.0,57,0.00,,,0.00,,2013-01-17 20:53:00,
2013-01-17 13:02:00,59.0,43.0,30.20,SSW,195,2.0,4.0,56,0.00,,,0.00,,2013-01-17 21:02:00,
2013-01-17 13:12:00,59.0,43.0,30.20,SSW,195,2.0,4.0,56,0.00,,,0.00,,2013-01-17 21:12:00,
2013-01-17 13:22:00,60.0,42.0,30.19,SW,236,2.0,5.0,51,0.00,,,0.00,,2013-01-17 21:22:00,
2013-01-17 13:33:00,61.0,41.0,30.19,SSW,202,2.0,4.0,48,0.00,,,0.00,,2013-01-17 21:33:00,
2013-01-17 13:42:00,61.0,41.0,30.19,SSW,202,2.0,4.0,48,0.00,,,0.00,,2013-01-17 21:42:00,
2013-01-17 13:53:00,62.0,42.0,30.18,WSW,244,2.0,4.0,47,0.00,,,0.00,,2013-01-17 21:53:00,
2013-01-17 14:02:00,62.0,42.0,30.17,SW,230,2.0,5.0,48,0.00,,,0.00,,2013-01-17 22:02:00,
2013-01-17 14:12:00,62.0,42.0,30.17,SW,230,2.0,5.0,48,0.00,,,0.00,,2013-01-17 22:12:00,
2013-01-17 14:22:00,62.0,40.0,30.17,SW,217,3.0,4.0,45,0.00,,,0.00,,2013-01-17 22:22:00,
2013-01-17 14:32:00,63.0,41.0,30.16,SSW,194,2.0,5.0,44,0.00,,,0.00,,2013-01-17 22:32:00,
2013-01-17 14:42:00,63.0,41.0,30.16,SSW,194,2.0,5.0,44,0.00,,,0.00,,2013-01-17 22:42:00,
2013-01-17 14:52:00,62.0,39.0,30.16,South,171,2.0,5.0,43,0.00,,,0.00,,2013-01-17 22:52:00,
2013-01-17 15:02:00,62.0,39.0,30.16,SW,215,3.0,5.0,42,0.00,,,0.00,,2013-01-17 23:02:00,
2013-01-17 15:12:00,62.0,39.0,30.16,SW,215,3.0,5.0,42,0.00,,,0.00,,2013-01-17 23:12:00,
2013-01-17 15:22:00,62.0,39.0,30.16,SSW,211,2.0,4.0,42,0.00,,,0.00,,2013-01-17 23:22:00,
2013-01-17 15:32:00,62.0,39.0,30.16,SSW,209,2.0,4.0,43,0.00,,,0.00,,2013-01-17 23:32:00,
2013-01-17 15:42:00,62.0,39.0,30.16,SSW,209,2.0,4.0,43,0.00,,,0.00,,2013-01-17 23:42:00,
2013-01-17 15:53:00,62.0,39.0,30.16,SSW,200,1.0,4.0,43,0.00,,,0.00,,2013-01-17 23:53:00,
2013-01-17 16:02:00,62.0,40.0,30.16,SSW,210,2.0,4.0,44,0.00,,,0.00,,2013-01-18 00:02:00,
2013-01-17 16:12:00,62.0,40.0,30.16,SSW,210,2.0,4.0,44,0.00,,,0.00,,2013-01-18 00:12:00,
2013-01-17 16:22:00,63.0,40.0,30.16,South,180,1.0,3.0,43,0.00,,,0.00,,2013-01-18 00:22:00,
2013-01-17 16:32:00,63.0,40.0,30.16,South,180,1.0,3.0,43,0.00,,,0.00,,2013-01-18 00:32:00,
2013-01-17 16:42:00,62.0,40.0,30.16,SW,228,2.0,4.0,45,0.00,,,0.00,,2013-01-18 00:42:00,
2013-01-17 16:52:00,61.0,41.0,30.16,SW,234,1.0,3.0,48,0.00,,,0.00,,2013-01-18 00:52:00,
2013-01-17 17:02:00,60.0,42.0,30.16,SW,234,0.0,0.0,52,0.00,,,0.00,,2013-01-18 01:02:00,
2013-01-17 17:12:00,60.0,42.0,30.16,SW,234,0.0,0.0,52,0.00,,,0.00,,2013-01-18 01:12:00,
2013-01-17 17:22:00,58.0,42.0,30.17,SW,234,0.0,2.0,55,0.00,,,0.00,,2013-01-18 01:22:00,
2013-01-17 17:32:00,56.0,41.0,30.17,SW,234,0.0,2.0,58,0.00,,,0.00,,2013-01-18 01:32:00,
2013-01-17 17:42:00,56.0,41.0,30.17,SW,234,0.0,2.0,58,0.00,,,0.00,,2013-01-18 01:42:00,
2013-01-17 17:52:00,54.0,40.0,30.17,SW,234,1.0,1.0,60,0.00,,,0.00,,2013-01-18 01:52:00,
2013-01-17 18:02:00,53.0,41.0,30.18,SW,234,0.0,1.0,63,0.00,,,0.00,,2013-01-18 02:02:00,
2013-01-17 18:12:00,53.0,41.0,30.18,SW,234,0.0,1.0,63,0.00,,,0.00,,2013-01-18 02:12:00,
2013-01-17 18:22:00,52.0,40.0,30.17,SW,234,0.0,1.0,64,0.00,,,0.00,,2013-01-18 02:22:00,
2013-01-17 18:32:00,51.0,40.0,30.17,SW,234,1.0,1.0,66,0.00,,,0.00,,2013-01-18 02:32:00,
2013-01-17 18:42:00,51.0,40.0,30.17,SW,234,1.0,1.0,66,0.00,,,0.00,,2013-01-18 02:42:00,
2013-01-17 18:53:00,51.0,40.0,30.18,SW,234,0.0,1.0,67,0.00,,,0.00,,2013-01-18 02:53:00,
2013-01-17 19:02:00,50.0,39.0,30.17,SW,234,0.0,1.0,67,0.00,,,0.00,,2013-01-18 03:02:00,
2013-01-17 19:12:00,50.0,39.0,30.17,SW,234,0.0,1.0,67,0.00,,,0.00,,2013-01-18 03:12:00,
2013-01-17 19:22:00,50.0,39.0,30.17,SW,234,0.0,1.0,67,0.00,,,0.00,,2013-01-18 03:22:00,
2013-01-17 19:32:00,50.0,40.0,30.17,SW,234,0.0,1.0,68,0.00,,,0.00,,2013-01-18 03:32:00,
2013-01-17 19:42:00,50.0,40.0,30.17,SW,234,0.0,1.0,68,0.00,,,0.00,,2013-01-18 03:42:00,
2013-01-17 19:52:00,50.0,39.0,30.17,SW,234,0.0,1.0,67,0.00,,,0.00,,2013-01-18 03:52:00,
2013-01-17 20:02:00,50.0,39.0,30.17,SW,234,1.0,1.0,67,0.00,,,0.00,,2013-01-18 04:02:00,
2013-01-17 20:12:00,50.0,39.0,30.17,SW,234,1.0,1.0,67,0.00,,,0.00,,2013-01-18 04:12:00,
2013-01-17 20:22:00,49.0,39.0,30.17,SW,234,0.0,1.0,68,0.00,,,0.00,,2013-01-18 04:22:00,
2013-01-17 20:32:00,49.0,39.0,30.17,SW,234,0.0,1.0,68,0.00,,,0.00,,2013-01-18 04:32:00,
2013-01-17 20:42:00,49.0,39.0,30.17,SW,234,0.0,1.0,68,0.00,,,0.00,,2013-01-18 04:42:00,
2013-01-17 20:53:00,48.0,39.0,30.17,SW,234,0.0,1.0,71,0.00,,,0.00,,2013-01-18 04:53:00,
2013-01-17 21:03:00,48.0,39.0,30.17,SW,234,0.0,1.0,72,0.00,,,0.00,,2013-01-18 05:03:00,
2013-01-17 21:12:00,48.0,39.0,30.17,SW,234,0.0,1.0,72,0.00,,,0.00,,2013-01-18 05:12:00,
2013-01-17 21:22:00,47.0,39.0,30.17,SW,234,0.0,0.0,73,0.00,,,0.00,,2013-01-18 05:22:00,
2013-01-17 21:32:00,47.0,39.0,30.17,SW,234,0.0,1.0,73,0.00,,,0.00,,2013-01-18 05:32:00,
2013-01-17 21:42:00,47.0,39.0,30.17,SW,234,0.0,1.0,73,0.00,,,0.00,,2013-01-18 05:42:00,
2013-01-17 21:53:00,48.0,39.0,30.17,SW,234,1.0,2.0,72,0.00,,,0.00,,2013-01-18 05:53:00,
2013-01-17 22:02:00,48.0,39.0,30.17,NE,54,1.0,2.0,71,0.00,,,0.00,,2013-01-18 06:02:00,
2013-01-17 22:12:00,48.0,39.0,30.17,NE,54,1.0,2.0,71,0.00,,,0.00,,2013-01-18 06:12:00,
2013-01-17 22:22:00,48.0,38.0,30.17,NE,54,1.0,2.0,69,0.00,,,0.00,,2013-01-18 06:22:00,
2013-01-17 22:32:00,47.0,37.0,30.17,NE,54,0.0,2.0,68,0.00,,,0.00,,2013-01-18 06:32:00,
2013-01-17 22:42:00,47.0,37.0,30.17,NE,54,0.0,2.0,68,0.00,,,0.00,,2013-01-18 06:42:00,
2013-01-17 22:52:00,47.0,37.0,30.17,NE,54,0.0,1.0,68,0.00,,,0.00,,2013-01-18 06:52:00,
2013-01-17 23:02:00,47.0,36.0,30.17,NE,54,0.0,2.0,66,0.00,,,0.00,,2013-01-18 07:02:00,
2013-01-17 23:12:00,47.0,36.0,30.17,NE,54,0.0,2.0,66,0.00,,,0.00,,2013-01-18 07:12:00,
2013-01-17 23:22:00,46.0,34.0,30.18,NE,54,0.0,2.0,63,0.00,,,0.00,,2013-01-18 07:22:00,
2013-01-17 23:32:00,46.0,34.0,30.18,NE,54,0.0,1.0,63,0.00,,,0.00,,2013-01-18 07:32:00,
2013-01-17 23:42:00,46.0,34.0,30.18,NE,54,0.0,1.0,63,0.00,,,0.00,,2013-01-18 07:42:00,
2013-01-17 23:52:00,47.0,37.0,30.18,NE,54,1.0,2.0,69,0.00,,,0.00,,2013-01-18 07:52:00,